Flight Track Log - Related Links

Times and Time Zones

All times are in EDT time to prevent confusion due to time zone crossing. See the N775NC flight status page for this flight to view local times or setup timezone preferences in your user account.

Time Position Orientation Groundspeed Altitude Reporting Facility
EDT Latitude Longitude Course Direction KTS MPH feet Rate Location/Type
Tue 09:11:07 PM 33.6333 -84.4667 174° South 191 220 2,400  Level Atlanta TRACON
Tue 09:12:07 PM 33.6000 -84.5500 244° Southwest 260 299 4,600 2,900 Climbing Atlanta TRACON
Tue 09:13:00 PM 33.4826 -84.0850 163° South  Level Estimated
Tue 09:13:07 PM 33.5833 -84.6167 253° West 255 293 8,200  Level Atlanta TRACON
Tue 09:14:00 PM 33.4311 -83.9710 128° Southeast  Level Estimated
Tue 09:14:09 PM 33.5214 -84.6542 207° Southwest 243 280 10,300  Level Atlanta Center
Tue 09:15:00 PM 33.3235 -83.9574 174° South  Level FlightAware Approximate
Tue 09:15:09 PM 33.4467 -84.5839 142° Southeast 327 376 11,600  Level Atlanta Center
Tue 09:16:00 PM 33.2159 -83.9438 174° South  Level FlightAware Approximate
Tue 09:16:09 PM 33.3656 -84.4914 136° Southeast 370 426 13,000  Level Atlanta Center
Tue 09:17:09 PM 33.3053 -84.3694 121° Southeast 413 475 15,300 2,000 Climbing Atlanta Center
Tue 09:18:09 PM 33.2703 -84.2228 106° East 427 491 17,000 1,800 Climbing Atlanta Center
Tue 09:19:09 PM 33.2411 -84.0711 103° East 457 526 18,900 1,650 Climbing Atlanta Center
Tue 09:20:09 PM 33.2119 -83.8997 101° East 469 540 20,300 1,300 Climbing Atlanta Center
Tue 09:21:09 PM 33.1844 -83.7386 101° East 485 558 21,500 1,250 Climbing Atlanta Center
Tue 09:22:09 PM 33.1381 -83.5822 109° East 490 564 22,800 750 Climbing Atlanta Center
Tue 09:23:09 PM 33.0892 -83.4239 110° East 501 577 23,000 100 Climbing Atlanta Center
Tue 09:24:09 PM 33.0508 -83.2806 108° East 506 582 23,000  Level Atlanta Center
Tue 09:25:09 PM 32.9933 -83.1075 112° Southeast 506 582 23,000  Level Atlanta Center
Tue 09:26:09 PM 32.9461 -82.9569 110° East 506 582 23,000  Level Atlanta Center
Tue 09:27:09 PM 32.8883 -82.8069 115° Southeast 496 571 23,000  Level Atlanta Center
Tue 09:28:09 PM 32.8283 -82.6594 116° Southeast 491 565 23,000 -850 Level Atlanta Center
Tue 09:29:09 PM 32.7664 -82.5394 122° Southeast 484 557 21,300 -2,712 Descending Atlanta Center
Tue 09:31:37 PM 32.6114 -82.2194 120° Southeast 440 506 13,600 -2,769 Descending Jacksonville Center
Tue 09:32:37 PM 32.5525 -82.1114 123° Southeast 415 478 11,700 -1,300 Descending Jacksonville Center
Tue 09:33:37 PM 32.4994 -82.0058 121° Southeast 387 445 11,000 -350 Descending Jacksonville Center
Tue 09:34:37 PM 32.4447 -81.9128 125° Southeast 352 405 11,000 -200 Level Jacksonville Center
Tue 09:35:37 PM 32.4064 -81.8197 116° Southeast 342 394 10,600 -800 Descending Jacksonville Center
Tue 09:36:37 PM 32.3658 -81.7217 116° Southeast 311 358 9,400 -900 Descending Jacksonville Center
Tue 09:37:37 PM 32.3253 -81.6364 119° Southeast 299 344 8,800 -1,350 Descending Jacksonville Center
Tue 09:38:37 PM 32.2722 -81.5608 130° Southeast 299 344 6,700 -2,150 Descending Jacksonville Center
Tue 09:39:37 PM 32.2214 -81.4953 132° Southeast 278 320 4,500 -1,950 Descending Jacksonville Center
Tue 09:40:37 PM 32.1686 -81.4322 135° Southeast 271 312 2,800 -1,300 Descending Jacksonville Center
Tue 09:41:37 PM 32.1344 -81.3789 127° Southeast 238 274 1,900 -700 Descending Jacksonville Center
Tue 09:42:37 PM 32.1294 -81.3103 95° East 189 217 1,400 -650 Descending Jacksonville Center
Tue 09:43:37 PM 32.1289 -81.2611 91° East 158 182 600 -800 Descending Jacksonville Center

Login

Don't have an account? Register now (free) for customized features, flight alerts, and more!